Satellite: NOAA-11 Catalog number: 19531 Epoch time: 11082.77641525 Element set: 0445 Inclination: 098.7522 deg RA of node: 171.8556 deg Eccentricity: 0.0011997 Arg of perigee: 073.7126 deg Mean anomaly: 286.5350 deg Mean motion: 14.14907738 rev/day Decay rate: -3.2e-07 rev/day^2 Epoch rev: 16067 Checksum: 312
Satellite: NOAA-12 Catalog number: 21263 Epoch time: 11083.80005556 Element set: 941 Inclination: 098.7551 deg RA of node: 101.7798 deg Eccentricity: 0.0013339 Arg of perigee: 073.4741 deg Mean anomaly: 286.8377 deg Mean motion: 14.25692778 rev/day Decay rate: 8.8e-07 rev/day^2 Epoch rev: 3243 Checksum: 317
Satellite: MET-3/5 Catalog number: 21655 Epoch time: 11083.65685642 Element set: 68 Inclination: 082.5528 deg RA of node: 110.5036 deg Eccentricity: 0.0013811 Arg of perigee: 014.0774 deg Mean anomaly: 346.0799 deg Mean motion: 13.17027530 rev/day Decay rate: 5.1e-07 rev/day^2 Epoch rev: 94259 Checksum: 292
Satellite: MET-2/21 Catalog number: 22782 Epoch time: 11083.79491990 Element set: 50 Inclination: 082.5500 deg RA of node: 029.8280 deg Eccentricity: 0.0021971 Arg of perigee: 339.6961 deg Mean anomaly: 020.3336 deg Mean motion: 13.83655519 rev/day Decay rate: 1.37e-06 rev/day^2 Epoch rev: 88688 Checksum: 320
Satellite: OKEAN-4 Catalog number: 23317 Epoch time: 11083.82603730 Element set: 507 Inclination: 082.5363 deg RA of node: 091.9085 deg Eccentricity: 0.0023399 Arg of perigee: 040.3200 deg Mean anomaly: 319.9744 deg Mean motion: 14.82970892 rev/day Decay rate: 3.95e-06 rev/day^2 Epoch rev: 88804 Checksum: 310
Satellite: NOAA-14 Catalog number: 23455 Epoch time: 11082.97014320 Element set: 0441 Inclination: 098.8544 deg RA of node: 166.4464 deg Eccentricity: 0.0009612 Arg of perigee: 156.6082 deg Mean anomaly: 203.5529 deg Mean motion: 14.13810528 rev/day Decay rate: 7.9e-07 rev/day^2 Epoch rev: 83703 Checksum: 293
Satellite: NOAA-15 Catalog number: 25338 Epoch time: 11082.63744163 Element set: 0753 Inclination: 098.6498 deg RA of node: 069.9806 deg Eccentricity: 0.0010408 Arg of perigee: 347.1557 deg Mean anomaly: 012.9350 deg Mean motion: 14.24892210 rev/day Decay rate: 5.1e-07 rev/day^2 Epoch rev: 66854 Checksum: 314
Satellite: RESURS Catalog number: 25394 Epoch time: 11082.96013861 Element set: 0757 Inclination: 098.3002 deg RA of node: 090.6780 deg Eccentricity: 0.0002177 Arg of perigee: 102.7001 deg Mean anomaly: 257.4423 deg Mean motion: 14.24226547 rev/day Decay rate: 1.2e-07 rev/day^2 Epoch rev: 66017 Checksum: 265
Satellite: FENGYUN1 Catalog number: 25730 Epoch time: 11082.93282636 Element set: 0286 Inclination: 098.8130 deg RA of node: 046.0229 deg Eccentricity: 0.0022498 Arg of perigee: 188.5513 deg Mean anomaly: 171.5270 deg Mean motion: 14.08545733 rev/day Decay rate: 6.91e-06 rev/day^2 Epoch rev: 61106 Checksum: 295
Satellite: OKEAN-0 Catalog number: 25860 Epoch time: 11083.90479783 Element set: 263 Inclination: 097.8744 deg RA of node: 052.7171 deg Eccentricity: 0.0000644 Arg of perigee: 062.5721 deg Mean anomaly: 297.5553 deg Mean motion: 14.73731321 rev/day Decay rate: 1.75e-06 rev/day^2 Epoch rev: 62824 Checksum: 304
Satellite: NOAA-16 Catalog number: 26536 Epoch time: 11082.65611643 Element set: 0235 Inclination: 099.1487 deg RA of node: 111.4297 deg Eccentricity: 0.0009713 Arg of perigee: 272.6730 deg Mean anomaly: 087.3331 deg Mean motion: 14.12601878 rev/day Decay rate: -2.23e-06 rev/day^2 Epoch rev: 54128 Checksum: 294
Satellite: NOAA-17 Catalog number: 27453 Epoch time: 11082.75020005 Element set: 0229 Inclination: 098.3898 deg RA of node: 126.3438 deg Eccentricity: 0.0012317 Arg of perigee: 044.1158 deg Mean anomaly: 316.0996 deg Mean motion: 14.24247831 rev/day Decay rate: -5.7e-07 rev/day^2 Epoch rev: 45449 Checksum: 302
Satellite: NOAA-18 Catalog number: 28654 Epoch time: 11082.82234141 Element set: 0711 Inclination: 098.9886 deg RA of node: 033.7998 deg Eccentricity: 0.0014264 Arg of perigee: 349.0260 deg Mean anomaly: 011.0589 deg Mean motion: 14.11450268 rev/day Decay rate: 1.37e-06 rev/day^2 Epoch rev: 30088 Checksum: 304
Satellite: NOAA-19 Catalog number: 33591 Epoch time: 11082.80068840 Element set: 0904 Inclination: 098.8217 deg RA of node: 024.4207 deg Eccentricity: 0.0013468 Arg of perigee: 215.3670 deg Mean anomaly: 144.6600 deg Mean motion: 14.11143288 rev/day Decay rate: 1.67e-06 rev/day^2 Epoch rev: 10934 Checksum: 285
/EX SB KEPS @ AMSAT $ORB11083.M Orbital Elements 11083.MISC
HR AMSAT ORBITAL ELEMENTS FOR MANNED AND MISCELLANEOUS SATELLITES FROM WA5QGD FORT WORTH,TX March 24, 2011 Send Subscribe/unsubscribe to KEPS at http://www.amsat.org/mailman/listinfo/keps BID: ORB11083.M TO ALL RADIO AMATEURS BT
Satellite: HUBBLE Catalog number: 20580 Epoch time: 11081.63129642 Element set: 733 Inclination: 028.4716 deg RA of node: 221.8120 deg Eccentricity: 0.0003172 Arg of perigee: 281.0775 deg Mean anomaly: 078.9467 deg Mean motion: 15.01221220 rev/day Decay rate: 8.49e-06 rev/day^2 Epoch rev: 94663 Checksum: 274
Satellite: ISS Catalog number: 25544 Epoch time: 11084.03009690 Element set: 64 Inclination: 051.6460 deg RA of node: 232.6759 deg Eccentricity: 0.0001309 Arg of perigee: 043.9545 deg Mean anomaly: 060.3615 deg Mean motion: 15.71987217 rev/day Decay rate: 2.0956e-04 rev/day^2 Epoch rev: 70765 Checksum: 293
Satellite: CO-58 Catalog number: 28895 Epoch time: 11082.60808289 Element set: 0833 Inclination: 097.9814 deg RA of node: 322.2477 deg Eccentricity: 0.0018967 Arg of perigee: 128.2053 deg Mean anomaly: 232.0873 deg Mean motion: 14.60034222 rev/day Decay rate: 2.60e-06 rev/day^2 Epoch rev: 28775 Checksum: 325
Satellite: FALCON Catalog number: 30776 Epoch time: 11082.56993320 Element set: 0065 Inclination: 035.4328 deg RA of node: 147.4449 deg Eccentricity: 0.0000859 Arg of perigee: 035.7065 deg Mean anomaly: 324.3709 deg Mean motion: 15.04252416 rev/day Decay rate: 1.338e-05 rev/day^2 Epoch rev: 22214 Checksum: 281
Satellite: MAST Catalog number: 31126 Epoch time: 11082.96267249 Element set: 0129 Inclination: 097.9042 deg RA of node: 114.9737 deg Eccentricity: 0.0095657 Arg of perigee: 076.2986 deg Mean anomaly: 284.8840 deg Mean motion: 14.53693794 rev/day Decay rate: 2.22e-06 rev/day^2 Epoch rev: 20870 Checksum: 332
Satellite: CAPE1 Catalog number: 31130 Epoch time: 11082.73122696 Element set: 134 Inclination: 097.9076 deg RA of node: 111.6507 deg Eccentricity: 0.0103925 Arg of perigee: 087.2257 deg Mean anomaly: 274.0847 deg Mean motion: 14.52316693 rev/day Decay rate: 2.73e-06 rev/day^2 Epoch rev: 20823 Checksum: 283
Satellite: COMPASS Catalog number: 32787 Epoch time: 11083.69863272 Element set: 941 Inclination: 097.8545 deg RA of node: 149.0660 deg Eccentricity: 0.0016833 Arg of perigee: 092.3759 deg Mean anomaly: 267.9358 deg Mean motion: 14.82218776 rev/day Decay rate: 1.136e-05 rev/day^2 Epoch rev: 15704 Checksum: 339
Satellite: AAUSAT2 Catalog number: 32788 Epoch time: 11083.60508368 Element set: 931 Inclination: 097.8547 deg RA of node: 149.1714 deg Eccentricity: 0.0016524 Arg of perigee: 093.4319 deg Mean anomaly: 266.8799 deg Mean motion: 14.82386078 rev/day Decay rate: 8.54e-06 rev/day^2 Epoch rev: 15704 Checksum: 343
Satellite: DO-64 Catalog number: 32789 Epoch time: 11082.82860993 Element set: 0949 Inclination: 097.8647 deg RA of node: 149.2609 deg Eccentricity: 0.0016601 Arg of perigee: 094.3887 deg Mean anomaly: 265.9201 deg Mean motion: 14.82722033 rev/day Decay rate: 1.585e-05 rev/day^2 Epoch rev: 15693 Checksum: 352
Satellite: CO-66 Catalog number: 32791 Epoch time: 11083.69850432 Element set: 933 Inclination: 097.8565 deg RA of node: 149.0315 deg Eccentricity: 0.0017073 Arg of perigee: 091.1269 deg Mean anomaly: 269.1902 deg Mean motion: 14.81946959 rev/day Decay rate: 1.007e-05 rev/day^2 Epoch rev: 15699 Checksum: 340
Satellite: RS-30 Catalog number: 32953 Epoch time: 11083.79505449 Element set: 580 Inclination: 082.5013 deg RA of node: 215.1763 deg Eccentricity: 0.0018716 Arg of perigee: 207.6009 deg Mean anomaly: 152.4076 deg Mean motion: 12.43011236 rev/day Decay rate: 1.0e-07 rev/day^2 Epoch rev: 12860 Checksum: 262
Satellite: TACSAT-3 Catalog number: 35001 Epoch time: 11083.85085383 Element set: 542 Inclination: 040.4539 deg RA of node: 323.8802 deg Eccentricity: 0.0024742 Arg of perigee: 302.0845 deg Mean anomaly: 057.7595 deg Mean motion: 15.45871298 rev/day Decay rate: 1.2383e-04 rev/day^2 Epoch rev: 10401 Checksum: 287
Satellite: PHARMSAT Catalog number: 35002 Epoch time: 11083.80707350 Element set: 504 Inclination: 040.4707 deg RA of node: 321.6299 deg Eccentricity: 0.0026175 Arg of perigee: 305.0585 deg Mean anomaly: 054.7801 deg Mean motion: 15.45937232 rev/day Decay rate: 1.0579e-04 rev/day^2 Epoch rev: 10403 Checksum: 266
Satellite: HAWKSAT1 Catalog number: 35003 Epoch time: 11083.81281473 Element set: 556 Inclination: 040.4570 deg RA of node: 302.9316 deg Eccentricity: 0.0024761 Arg of perigee: 328.4671 deg Mean anomaly: 031.4741 deg Mean motion: 15.54885337 rev/day Decay rate: 3.6672e-04 rev/day^2 Epoch rev: 10424 Checksum: 281
Satellite: CP6 Catalog number: 35004 Epoch time: 11083.83586771 Element set: 560 Inclination: 040.4570 deg RA of node: 297.6722 deg Eccentricity: 0.0024368 Arg of perigee: 334.7511 deg Mean anomaly: 025.2545 deg Mean motion: 15.57857136 rev/day Decay rate: 4.5380e-04 rev/day^2 Epoch rev: 10429 Checksum: 303
Satellite: METEOR-M Catalog number: 35865 Epoch time: 11083.70571022 Element set: 216 Inclination: 098.7159 deg RA of node: 139.8920 deg Eccentricity: 0.0001747 Arg of perigee: 290.6060 deg Mean anomaly: 069.4877 deg Mean motion: 14.21835499 rev/day Decay rate: 1.76e-06 rev/day^2 Epoch rev: 7858 Checksum: 325
